CAPE
127 178 156 27 28 25 115 155 227 319 216 132 204 135 303 526 468 364 236 499 532 541 598 934 902 1141 1143 1030 792 881 1058 1068 1198
119 169 216 138 106 43 62 114 194 234 289 251 184 292 218 403 518 433 411 401 404 231 531 784 936 984 1087 1210 1073 1089 1245 1193 1240
52 146 283 311 212 135 92 84 226 251 364 392 424 600 456 345 431 343 172 427 648 810 714 913 937 1150 1071 1126 1305 1153 1189 1228 964
85 68 105 122 211 234 180 112 145 192 185 294 383 526 567 428 550 604 252 328 1011 870 763 761 878 973 873 1053 1339 1425 1055 1022 1042
32 36 38 116 155 143 125 131 123 1 108 108 209 310 422 518 634 536 757 577 855 821 757 544 766 467 517 680 848 1101 1384 1183 1156
0 1 0 0 1 17 123 107 53 126 82 50 58 109 216 290 405 605 618 809 872 878 851 565 448 282 137 61 358 746 1135 1406 1227
1 0 0 0 0 6 12 14 8 28 28 89 67 3 55 44 157 246 422 696 834 824 1071 883 764 638 578 518 443 789 1077 1446 1195
0 0 0 0 0 0 0 0 0 3 14 51 42 72 11 12 32 93 0 6 148 608 967 1069 1263 1274 1256 1216 1308 1405 1415 1433 1399
0 0 0 0 0 0 0 0 0 1 2 4 0 0 0 16 22 7 40 9 15 217 420 995 1183 1452 1401 1311 1231 1507 1461 1430 1390
0 0 0 0 0 0 0 0 0 0 0 0 0 0 0 1 14 1 3 12 7 46 143 243 454 1042 1347 1345 1399 1455 1323 1165 972
0 0 0 0 0 0 0 0 0 0 0 0 0 0 0 0 0 0 0 0 0 0 1 8 67 198 482 886 1168 1264 1233 1109 956
0 0 0 0 0 0 0 0 0 0 0 0 0 0 0 0 0 0 0 0 0 0 0 0 0 0 32 147 390 520 540 672 1044
0 0 0 0 0 0 0 0 0 0 0 0 0 0 0 0 0 0 0 0 0 0 0 0 0 0 0 0 48 102 85 200 572
0 0 0 0 0 0 0 0 0 0 0 0 0 0 0 0 0 0 0 0 0 0 0 0 0 0 1 64 0 0 0 16 152
0 0 0 0 0 0 0 0 0 0 0 0 0 0 0 0 0 0 0 0 0 0 0 0 0 0 0 0 0 0 0 0 0
0 0 0 0 0 0 0 0 0 0 0 0 0 0 0 0 0 0 0 0 0 0 0 0 0 0 0 0 0 0 0 0 0
0 0 0 0 0 0 0 0 0 0 0 0 0 0 0 0 0 0 0 0 0 0 0 0 0 0 0 0 0 0 0 0 0
0 0 0 0 0 0 0 0 0 0 0 0 0 0 0 0 0 0 0 0 0 0 0 0 0 0 0 0 0 0 0 0 0
0 0 0 0 0 0 0 0 0 0 0 0 0 0 0 0 0 0 0 0 0 0 0 0 0 0 0 0 0 0 0 0 0
0 0 0 0 0 0 0 0 0 0 0 0 0 0 0 0 0 0 0 0 0 0 0 0 0 0 0 0 0 0 0 0 0
CIN
-95 -76 -70 -74 -56 -79 -95 -100 -120 -103 -94 -76 -56 -66 -47 -39 -43 -65 -71 -69 -49 -45 -45 -35 -31 -30 -28 -34 -40 -40 -34 -43 -33
-94 -90 -116 -81 -69 -74 -81 -103 -106 -107 -133 -95 -69 -65 -55 -45 -45 -44 -43 -55 -53 -65 -67 -65 -56 -38 -33 -26 -29 -26 -29 -26 -32
-160 -154 -110 -90 -110 -92 -120 -139 -107 -77 -94 -88 -77 -45 -55 -60 -57 -60 -63 -55 -50 -43 -50 -50 -54 -49 -41 -41 -23 -26 -37 -32 -43
-123 -147 -138 -128 -125 -129 -144 -149 -155 -127 -100 -79 -64 -47 -45 -47 -49 -54 -63 -65 -26 -36 -53 -57 -68 -58 -53 -54 -40 -23 -34 -38 -40
-195 -193 -188 -132 -148 -109 -130 -111 -81 -4 -109 -102 -104 -87 -52 -44 -43 -27 -30 -46 -32 -40 -33 -65 -64 -76 -80 -77 -60 -37 -27 -33 -31
-0 -0 -0 -0 -0 -242 -168 -179 -104 -36 -36 -69 -127 -149 -109 -81 -57 -24 -22 -27 -34 -30 -36 -53 -68 -102 -122 -138 -91 -55 -41 -28 -22
-0 -0 -0 -0 -0 -339 -300 -233 -175 -116 -71 -80 -75 -43 -136 -155 -151 -125 -92 -69 -44 -26 -23 -45 -70 -76 -73 -78 -72 -42 -26 -22 -25
-0 -0 -0 -0 -0 -0 -0 -0 -0 -326 -239 -156 -111 -81 -70 -115 -180 -148 -0 -65 -181 -73 -27 -14 -23 -36 -44 -41 -39 -29 -20 -13 -14
-0 -0 -0 -0 -0 -0 -0 -0 -0 -0 -0 -315 -51 -0 -29 -131 -164 -228 -199 -228 -189 -132 -87 -43 -11 -17 -27 -29 -36 -20 -21 -18 -16
-0 -0 -0 -0 -0 -0 -0 -0 -0 -0 -0 -0 -0 -0 -0 -155 -230 -160 -124 -186 -194 -179 -185 -178 -115 -57 -33 -28 -32 -26 -25 -33 -38
-0 -0 -0 -0 -0 -0 -0 -0 -0 -0 -0 -0 -0 -0 -0 -0 -0 -0 -0 -0 -0 -0 -82 -128 -218 -145 -113 -73 -40 -40 -36 -34 -41
-0 -0 -0 -0 -0 -0 -0 -0 -0 -0 -0 -0 -0 -0 -0 -0 -0 -0 -0 -0 -0 -0 -0 -0 -0 -0 -248 -150 -103 -110 -118 -86 -31
-0 -0 -0 -0 -0 -0 -0 -0 -0 -0 -0 -0 -0 -0 -0 -0 -0 -0 -0 -0 -0 -0 -0 -0 -0 -0 -0 -0 -172 -208 -209 -176 -81
-0 -0 -0 -0 -0 -0 -0 -0 -0 -0 -0 -0 -0 -0 -0 -0 -0 -0 -0 -0 -0 -0 -0 -0 -0 -0 -47 -107 -0 -0 -0 -168 -162
-0 -0 -0 -0 -0 -0 -0 -0 -0 -0 -0 -0 -0 -0 -0 -0 -0 -0 -0 -0 -0 -0 -0 -0 -0 -0 -0 -0 -0 -0 -0 -0 -0
-0 -0 -0 -0 -0 -0 -0 -0 -0 -0 -0 -0 -0 -0 -0 -0 -0 -0 -0 -0 -0 -0 -0 -0 -0 -0 -0 -0 -0 -0 -0 -0 -0
-0 -0 -0 -0 -0 -0 -0 -0 -0 -0 -0 -0 -0 -0 -0 -0 -0 -0 -0 -0 -0 -0 -0 -0 -0 -0 -0 -0 -0 -0 -0 -0 -0
-0 -0 -0 -0 -0 -0 -0 -0 -0 -0 -0 -0 -0 -0 -0 -0 -0 -0 -0 -0 -0 -0 -0 -0 -0 -0 -0 -0 -0 -0 -0 -0 -0
-0 -0 -0 -0 -0 -0 -0 -0 -0 -0 -0 -0 -0 -0 -0 -0 -0 -0 -0 -0 -0 -0 -0 -0 -0 -0 -0 -0 -0 -0 -0 -0 -0
-0 -0 -0 -0 -0 -0 -0 -0 -0 -0 -0 -0 -0 -0 -0 -0 -0 -0 -0 -0 -0 -0 -0 -0 -0 -0 -0 -0 -0 -0 -0 -0 -0
Wind_Speed
20 23 24 25 12 12 15 12 8 6 9 9 5 7 4 2 6 3 14 15 19 24 25 23 24 23 23 22 22 22 23 23 24
24 27 21 26 18 17 11 11 10 9 7 6 7 7 9 5 3 4 27 26 24 27 25 23 22 22 20 22 23 23 22 23 23
13 18 23 16 13 15 17 13 15 16 12 10 12 9 10 14 7 3 31 26 27 28 28 26 23 21 19 21 24 23 23 22 22
16 16 17 17 14 12 12 13 12 14 14 13 14 16 19 17 14 19 31 31 29 28 29 28 21 21 20 19 22 24 23 23 23
10 11 13 12 9 12 11 14 16 18 17 13 13 14 18 23 26 22 26 32 30 24 30 26 7 26 27 26 25 25 24 24 23
11 9 10 9 12 14 15 13 18 13 24 21 16 14 15 19 23 27 29 31 32 26 30 29 24 21 29 28 27 25 25 25 24
9 8 8 8 6 7 7 6 8 13 14 21 23 22 18 17 20 22 22 23 27 31 31 30 26 24 29 27 29 29 29 27 26
5 4 5 5 4 4 6 7 8 9 7 7 4 7 19 21 20 17 20 22 25 28 31 34 33 30 28 28 28 28 28 30 29
5 3 3 4 6 6 7 7 8 9 9 9 8 10 12 12 17 21 19 22 26 27 27 27 31 31 29 29 29 28 28 30 31
2 4 5 6 6 6 8 9 11 11 12 11 11 12 12 10 15 20 23 24 27 29 26 25 26 26 24 26 29 30 30 31 31
2 1 3 5 6 8 10 9 11 13 14 15 14 13 14 14 15 17 14 18 23 24 24 25 26 28 27 27 28 28 30 32 31
5 2 3 6 8 9 11 12 11 13 14 15 15 15 15 16 16 16 17 20 21 23 26 25 28 29 30 29 28 27 28 32 32
3 5 6 6 7 9 10 12 12 13 15 16 17 18 17 18 18 17 17 18 19 22 23 26 28 29 29 30 29 29 30 31 32
1 3 3 5 8 10 12 13 14 15 17 19 20 19 19 20 20 20 20 21 21 22 23 23 25 25 26 23 23 24 24 25 27
4 5 7 8 10 12 14 15 16 17 19 21 21 22 22 22 23 22 23 23 24 25 25 24 23 21 21 21 22 24 25 26 26
7 8 10 11 12 14 17 18 18 19 20 20 21 22 22 23 23 24 24 23 24 24 24 25 26 26 27 28 28 27 28 28 29
9 11 12 14 15 18 19 18 18 19 20 20 20 21 21 22 24 25 25 24 24 24 26 27 27 29 31 32 32 33 33 32 32
10 12 14 16 16 16 16 17 17 18 19 20 21 22 22 23 23 24 25 25 26 27 26 27 30 30 31 32 34 35 38 38 39
11 11 12 13 13 14 15 17 17 18 19 19 20 21 22 23 24 25 26 27 29 27 29 31 31 31 31 33 34 36 37 39 40
11 11 12 13 13 14 15 16 17 18 18 20 22 23 23 24 25 27 27 28 30 32 33 31 32 34 36 37 38 38 39 40 41
Wind_Direction
252 248 252 251 250 190 178 181 203 178 156 153 209 236 219 208 126 348 147 131 143 167 177 173 170 164 171 180 185 185 199 204 207
263 251 252 251 252 248 212 201 196 184 184 167 172 233 240 231 256 292 203 176 173 201 189 187 161 162 156 175 186 188 198 194 208
294 265 255 252 250 244 248 249 253 256 256 262 262 258 245 250 249 174 209 238 222 203 204 201 181 158 154 165 195 199 195 204 209
272 271 260 252 254 251 250 254 252 265 262 262 261 261 260 261 259 259 228 224 233 228 224 201 168 163 167 160 179 195 204 206 218
305 293 273 266 271 256 255 258 264 278 264 263 266 267 263 258 254 262 253 230 238 252 229 243 294 231 221 204 192 204 206 205 212
287 305 297 283 284 276 267 294 270 301 265 257 260 274 270 268 262 256 255 246 236 251 239 245 259 266 228 219 208 201 209 210 217
291 303 307 302 315 328 316 331 333 285 275 257 263 266 274 279 278 268 267 265 259 247 245 244 255 263 251 256 243 237 227 222 215
321 326 334 337 342 349 356 343 355 13 13 350 30 275 274 268 284 282 273 268 267 259 250 246 248 253 257 256 260 260 261 249 234
40 353 355 9 21 18 10 4 0 8 4 359 9 353 303 278 275 277 282 276 269 267 263 261 256 256 261 262 265 270 270 264 261
70 48 42 28 8 4 360 360 11 11 15 17 11 6 0 311 278 289 273 275 271 270 272 271 270 269 272 274 271 271 272 273 272
116 56 29 19 13 10 360 17 12 10 13 12 5 355 349 329 298 288 302 276 275 278 277 276 275 274 276 279 281 282 278 275 278
95 62 34 33 30 21 15 20 21 9 1 359 359 355 352 344 342 320 289 276 279 287 282 281 276 275 277 279 284 289 288 282 283
83 42 55 28 6 357 357 0 3 356 342 341 334 340 339 338 336 332 331 328 319 307 294 284 283 278 282 284 287 291 291 290 287
69 29 18 346 339 332 331 339 343 334 330 324 326 332 330 327 327 327 322 313 313 312 307 305 301 295 293 296 301 301 303 304 299
268 292 310 313 318 323 326 335 331 326 323 322 321 320 321 320 321 321 319 314 311 308 306 306 308 314 310 309 307 305 305 306 306
289 297 304 311 311 313 315 319 321 319 319 323 322 319 315 314 316 317 318 317 315 313 314 309 304 303 303 301 303 305 304 306 305
295 302 305 307 306 306 308 314 317 318 320 324 323 320 319 318 314 311 312 313 313 312 311 310 309 304 301 301 300 300 301 301 302
300 302 303 306 307 309 310 314 317 320 322 325 319 319 319 319 319 316 313 311 309 308 310 311 307 306 306 303 300 301 299 297 296
294 302 309 310 310 313 313 316 318 319 322 324 323 321 321 320 320 319 317 314 308 309 308 306 306 307 308 305 304 306 306 305 300
294 299 301 302 305 309 311 313 316 318 320 320 320 320 322 322 321 319 317 315 312 309 307 308 308 306 304 303 304 304 304 304 303